Location: La Pernelle
(49.6188°N, 1.2999°W)
Time: 08:31:50
(UTC+00:00)

Cosmos 1513 Rocket - Pass Details

Date: 12 June 2021
Orbit: 940 x 1008 km, 82.9° (Epoch: 01 August)

Event Time Altitude Azimuth Distance (km) Brightness Sun altitude
Rises 23:39:43 0° 350° (N) 3,618 9.3 -16.9°
Reaches altitude 10° 23:42:13 10° 352° (N) 2,668 8.1 -17.0°
Maximum altitude 23:48:19 82° 80° (E) 958 4.4 -17.1°
Enters shadow 23:51:53 27° 166° (SSE) 1,748 5.2 -17.1°
